This demonstration page uses our WeatherBlox Daily Observations layout. Learn more.

Left ArrowRight Arrow

34.16533, -84.80231

Hourly Observations for March 5, 2020

Temp ( °F °C ) Dew Point ( °F °C ) Humidity (%) Winds ( mph kmh ) Pressure ( in mb ) Visibility ( mi km ) Precip ( " mm )
12:53 am 00:53 Cloudy with Rain 52 11.1 49 9.4 89 89 NE 7 11 29.98 1015 5 8 0.07 1.78
1:18 am 01:18 Cloudy with Light Rain 52 11.1 49 9.4 89 89 Calm 30.05 1017 7 11 0.03 0.76
1:49 am 01:49 Cloudy with Rain 52 11 48 9 88 88 Calm 30.07 1018 3 5 0.10 2.54
1:53 am 01:53 Cloudy with Rain 52 11.1 49 9.4 89 89 Calm 30.04 1017 3 5 0.11 2.79
2:05 am 02:05 Cloudy with Rain 51 10.6 50 10 96 96 Calm 30.07 1018 3 5 0.05 1.27
2:12 am 02:12 Cloudy with Rain 51 10.6 50 10 96 96 SSE 6 9 30.05 1018 3 4 0.08 2.03
2:21 am 02:21 Cloudy with Light Rain 51 10.6 49 9.4 92 92 Calm 30.05 1018 4 6 0.10 2.54
2:53 am 02:53 Cloudy with Rain 51 10.6 49 9.4 92 92 Calm 30.00 1016 3 5 0.18 4.57
3:18 am 03:18 Cloudy with Light Rain 51 10.6 49 9.4 92 92 NE 3 6 29.99 1016 3 5 0.03 0.76
3:25 am 03:25 Cloudy with Light Rain 51 10.6 49 9.4 92 92 NNE 3 6 30.01 1016 4 6 0.04 1.02
3:33 am 03:33 Cloudy with Light Rain 51 10.6 49 9.4 92 92 NNE 3 6 30.01 1016 4 6 0.04 1.02
3:53 am 03:53 Cloudy with Light Rain 51 10.6 49 9.4 92 92 Calm 29.97 1015 3 5 0.07 1.78
4:53 am 04:53 Cloudy with Light Rain 51 10.6 49 9.4 92 92 ENE 3 6 29.98 1015 7 11 0.16 4.06
5:02 am 05:02 Cloudy with Light Rain 51 10.6 49 9.4 92 92 N 6 9 30.02 1017 7 11 0.01 0.25
5:53 am 05:53 Cloudy with Light Rain 51 10.6 49 9.4 92 92 NNE 6 9 29.99 1016 8 13 0.10 2.54
6:11 am 06:11 Cloudy with Light Rain 51 10.6 49 9.4 92 92 VRB 3 6 30.02 1017 9 14 0.02 0.51
6:53 am 06:53 Cloudy with Light Rain 51 10.6 48 8.9 89 89 ENE 6 9 30.00 1016 10 16 0.03 0.76
7:29 am 07:29 Cloudy with Rain 51 10.6 48 8.9 89 89 ENE 6 9 30.06 1018 6 10 0.06 1.52
7:53 am 07:53 Cloudy with Light Rain 51 10.6 48 8.9 89 89 NE 3 6 30.04 1017 9 14 0.10 2.54
8:13 am 08:13 Cloudy with Light Rain 51 10.6 49 9.4 92 92 ENE 5 7 30.05 1018 10 16 0.00 0.00
8:40 am 08:40 Cloudy 51 10.6 49 9.4 92 92 NNW 3 6 30.08 1019 10 16 0.00 0.00
8:53 am 08:53 Cloudy with Rain 51 10.6 49 9.4 92 92 NNE 5 7 30.06 1018 4 6 0.03 0.76
9:04 am 09:04 Cloudy with Rain 51 10.6 49 9.4 92 92 NE 5 7 30.09 1019 3 4 0.03 0.76
9:11 am 09:11 Cloudy with Light Rain 51 10.6 49 9.4 92 92 NE 7 11 30.08 1019 4 6 0.04 1.02
9:23 am 09:23 Cloudy with Rain 51 10.6 48 8.9 89 89 NE 6 9 30.08 1019 3 5 0.08 2.03
9:53 am 09:53 Cloudy with Light Rain 51 10.6 48 8.9 89 89 ENE 8 13 30.03 1017 5 8 0.11 2.79
10:44 am 10:44 Cloudy 52 11.1 47 8.3 83 83 ENE 8 13 30.06 1018 10 16 0.01 0.25
10:53 am 10:53 Cloudy with Nearby Thunderstorms 52 11.1 47 8.3 83 83 E 8 13 30.03 1017 10 16 0.01 0.25
11:09 am 11:09 Cloudy with Rain 51 10.6 47 8.3 86 86 E 12 19 30.05 1018 3 5 0.04 1.02
11:18 am 11:18 Cloudy with Nearby Thunderstorms 51 10.6 47 8.3 86 86 E 9 15 30.07 1018 4 6 0.07 1.78
11:27 am 11:27 Cloudy with Light Rain 51 10.6 47 8.3 86 86 E 13 20 30.05 1018 5 8 0.09 2.29
11:53 am 11:53 Cloudy with Rain 50 10 46 7.8 86 86 ESE 12 19 30.01 1016 3 5 0.16 4.06
12:43 pm 12:43 Cloudy with Light Rain 51 10.6 47 8.3 86 86 E 8 13 30.03 1017 7 11 0.11 2.79
12:53 pm 12:53 Cloudy with Light Rain 51 10.6 47 8.3 86 86 E 10 17 30.02 1017 9 14 0.11 2.79
1:53 pm 13:53 Cloudy with Light Rain 51 10.6 47 8.3 86 86 NNE 6 9 30.03 1017 10 16 0.03 0.76
2:10 pm 14:10 Cloudy with Light Rain 52 11.1 48 8.9 86 86 NNE 5 7 30.05 1017 7 11 0.00 0.00
2:19 pm 14:19 Cloudy with Light Rain 52 11.1 48 8.9 86 86 NNE 5 7 30.06 1018 7 11 0.00 0.00
2:26 pm 14:26 Cloudy 52 11.1 48 8.9 86 86 VRB 3 6 30.07 1018 7 11 0.00 0.00
2:53 pm 14:53 Cloudy with Light Rain 52 11.1 48 8.9 86 86 NNE 3 6 30.04 1017 4 6 0.03 0.76
3:10 pm 15:10 Cloudy with Light Rain 52 11.1 49 9.4 89 89 NNE 6 9 30.06 1018 9 14 0.00 0.00
3:24 pm 15:24 Cloudy with Light Rain 52 11.1 48 8.9 86 86 NE 7 11 30.06 1018 10 16 0.00 0.00
3:50 pm 15:50 Cloudy 54 12 48 9 82 82 NE 7 11 30.05 1018 10 16 0.00 0.00
3:53 pm 15:53 Cloudy 53 11.7 49 9.4 86 86 VRB 5 7 30.04 1017 10 16 0.00 0.00
4:48 pm 16:48 Mostly Cloudy 54 12 46 8 77 77 ENE 6 9 30.03 1017 10 16 0.00 0.00
4:53 pm 16:53 Mostly Cloudy 53 11.7 47 8.3 80 80 ENE 7 11 30.01 1016 10 16 0.00 0.00
5:53 pm 17:53 Mostly Sunny 53 11.7 46 7.8 77 77 VRB 6 9 30.01 1016 10 16 0.00 0.00
6:26 pm 18:26 Cloudy 53 11.7 46 7.8 77 77 NE 6 9 30.06 1018 10 16 0.00 0.00
6:53 pm 18:53 Cloudy 52 11.1 46 7.8 80 80 NE 3 6 30.05 1018 10 16 0.00 0.00
7:17 pm 19:17 Cloudy 51 10.6 46 7.8 83 83 Calm 30.08 1019 10 16 0.00 0.00
7:53 pm 19:53 Mostly Cloudy 49 9.4 46 7.8 90 90 Calm 30.06 1018 10 16 0.00 0.00
8:53 pm 20:53 Clear 47 8.3 45 7.2 93 93 Calm 30.07 1018 9 14 0.00 0.00
9:53 pm 21:53 Clear 45 7.2 43 6.1 93 93 Calm 30.09 1019 7 11 0.00 0.00
10:26 pm 22:26 Clear with Mist and Fog 44 6.7 42 5.6 93 93 Calm 30.12 1020 2 3 0.00 0.00
10:36 pm 22:36 Clear with Mist and Fog 44 6.7 42 5.6 93 93 Calm 30.13 1020 3 5 0.00 0.00
10:48 pm 22:48 Mostly Clear with Mist and Fog 43 6 41 5 93 93 Calm 30.12 1020 5 8 0.00 0.00
10:53 pm 22:53 Clear with Mist and Fog 44 6.7 42 5.6 93 93 Calm 30.09 1019 5 8 0.00 0.00
11:32 pm 23:32 Mostly Clear with Mist and Fog 43 6.1 41 5 93 93 Calm 30.11 1020 3 4 0.00 0.00
11:35 pm 23:35 Mostly Cloudy with Mist and Fog 43 6.1 41 5 93 93 Calm 30.11 1020 1 2 0.00 0.00
11:42 pm 23:42 Mostly Cloudy with Mist and Fog 43 6.1 41 5 93 93 Calm 30.11 1020 1 1 0.00 0.00
11:46 pm 23:46 Mostly Clear with Mist and Fog 43 6.1 41 5 93 93 Calm 30.11 1020 1 2 0.00 0.00
11:51 pm 23:51 Partly Cloudy with Mist and Fog 43 6 39 4 87 87 Calm 30.12 1020 3 5 0.00 0.00
11:53 pm 23:53 Partly Cloudy with Mist and Fog 42 5.6 40 4.4 92 92 Calm 30.09 1019 3 5 0.00 0.00
11:55 pm 23:55 Mostly Cloudy with Mist and Fog 42 5.6 40 4.4 92 92 Calm 30.12 1020 2 3 0.00 0.00

Powered by AerisWeather